Orbital Elements at Epoch 2459200.5 (2020-Dec-17.0) TDB
Reference: JPL 20 (heliocentric ecliptic J2000)
Element | Value | Uncertainty (1-sigma) | Units |
e | .2154900211867836 | 4.6642e-08 | |
a | 3.058245361592842 | 2.9538e-08 | au |
q | 2.399224003828818 | 1.3874e-07 | au |
i | 11.98147139755294 | 5.5323e-06 | deg |
node | 223.8407779711066 | 2.3913e-05 | deg |
peri | 196.4488556540503 | 2.7356e-05 | deg |
M | 284.3597661572142 | 1.8655e-05 | deg |
tp | 2459610.947181240208 (2022-Jan-31.44718124) | 0.00010579 | TDB |
period | 1953.470762049573 5.35 | 2.8302e-05 7.749e-08 | d yr |
n | .1842873755746872 | 2.6699e-09 | deg/d |
Q | 3.717266719356866 | 3.5904e-08 | au |
|
| | Orbit Determination Parameters
Additional Information
|